Flag for Germany Weather past 2 weeks in Achim, Lower Saxony, Germany

Now
77 °F

Scattered clouds.


Feels Like: 79 °F
Forecast: 60 / 77 °F
Wind: 7 mph from Southeast

Location: Bremen Airport

Current Time: Jul 26, 2014 at 6:08:40 PM

Latest Report: Jul 26, 2014 at 5:20 PM


Visibility: N/A

Pressure: 29.89 "Hg

Humidity: 57%

Dew point: 61 °F

Location of AchimLocation

Historic Weather in Achim — Graph

°F

Achim temperature yesterday

Maximum temperature yesterday: 72 °F (at 1:50 PM)
Minimum temperature yesterday: 63 °F (at 12:20 AM)
Average temperature yesterday: 66 °F

Past Weeks' High & Low Weather Summary

 TemperatureHumidityPressure
High90 °F (Jul 19, 1:50 PM)100% (Jul 13, 9:20 PM)30.18 "Hg (Jul 13, 9:20 PM)
Low54 °F (Jul 17, 4:50 AM)27% (Jul 19, 4:20 PM)29.68 "Hg (Jul 13, 2:20 PM)
Average70 °F70%29.97 "Hg
* Reported Jul 11 4:20 PM — Jul 26 4:50 PM, Achim, Weather by CustomWeather, © 2014

Note: Actual official high and low records may vary slightly from our data, if they occured in-between our weather recording intervals... More about our weather records

Advertising

Achim weather history for previous 24 hours

 ConditionsComfort  
Time TempWeatherWind HumidityBarometerVisibility
4:50 PM
Jul 26
77 °FScattered clouds.8 mph57%29.89 "HgN/A
4:20 PM77 °FScattered clouds.5 mph61%29.92 "HgN/A
3:50 PM77 °FScattered clouds.5 mph61%29.92 "HgN/A
3:20 PM75 °FScattered clouds.7 mph61%29.92 "HgN/A
2:50 PM75 °FBroken clouds.6 mph65%29.92 "HgN/A
2:20 PM75 °FBroken clouds.8 mph65%29.92 "HgN/A
1:50 PM75 °FBroken clouds.6 mph69%29.92 "HgN/A
1:20 PM73 °FBroken clouds.6 mph69%29.92 "HgN/A
12:50 PM73 °FScattered clouds.6 mph69%29.92 "HgN/A
12:20 PM72 °FPartly sunny.7 mph73%29.92 "HgN/A
11:50 AM72 °FBroken clouds.5 mph78%29.92 "HgN/A
11:20 AM70 °FBroken clouds.5 mph78%29.92 "HgN/A
10:50 AM68 °FBroken clouds.5 mph88%29.92 "HgN/A
10:20 AM68 °FBroken clouds.3 mph88%29.92 "HgN/A
9:50 AM66 °FBroken clouds.3 mph88%29.92 "HgN/A
9:20 AM66 °FBroken clouds.3 mph88%29.92 "HgN/A
8:50 AM66 °FBroken clouds.3 mph88%29.92 "HgN/A
8:20 AM66 °FPartly sunny.3 mph88%29.92 "Hg5 mi
7:50 AM64 °FPartly sunny.3 mph94%29.92 "Hg4 mi
7:20 AM64 °FFog.5 mph94%29.92 "Hg2 mi
6:50 AM64 °FLight rain. Fog.2 mph94%29.92 "Hg2 mi
6:20 AM64 °FLight rain. Fog.5 mph94%29.92 "Hg2 mi
5:50 AM64 °FFog.5 mph94%29.92 "Hg2 mi
5:20 AM64 °FFog.7 mph94%29.92 "Hg2 mi
4:50 AM64 °FFog.6 mph94%29.92 "Hg3 mi
4:20 AM64 °FPassing clouds.7 mph94%29.92 "Hg4 mi
3:50 AM64 °FPassing clouds.6 mph94%29.92 "Hg4 mi
3:20 AM64 °FPassing clouds.6 mph94%29.92 "Hg4 mi
2:50 AM63 °FClear.7 mph94%29.92 "Hg10 mi
2:20 AM64 °FClear.6 mph88%29.92 "Hg10 mi
1:50 AM64 °FClear.2 mph94%29.92 "Hg10 mi
1:20 AM63 °FPassing clouds.5 mph94%29.92 "HgN/A
12:50 AM64 °FClear.2 mph94%29.92 "Hg10 mi
12:20 AM63 °FClear.6 mph94%29.92 "Hg10 mi
11:50 PM
Jul 25
64 °FClear.5 mph94%29.92 "Hg10 mi
11:20 PM64 °FPassing clouds.6 mph94%29.92 "HgN/A
10:50 PM66 °FClear.6 mph83%29.92 "Hg10 mi
10:20 PM66 °FBroken clouds.7 mph88%29.92 "HgN/A
9:50 PM66 °FPartly sunny.6 mph94%29.92 "Hg6 mi
9:20 PM66 °FLight rain. Broken clouds.5 mph94%29.92 "Hg5 mi
8:50 PM68 °FThundershowers. Broken clouds.7 mph88%29.95 "Hg5 mi
8:20 PM66 °FStrong thunderstorms. Partly sunny.10 mph94%29.95 "Hg2 mi
7:50 PM70 °FScattered showers. Partly sunny.3 mph88%29.95 "HgN/A
7:20 PM70 °FBroken clouds.5 mph88%29.92 "HgN/A
6:50 PM72 °FSunny.3 mph78%29.95 "Hg10 mi
6:20 PM72 °FBroken clouds.3 mph78%29.95 "HgN/A
Weather by CustomWeather, © 2014

See weather overviewHow to use our weather pages